Grand Rapids, MI

8:46 PM EDT on May 23, 2018 (GMT -0400)
Gerald R. Ford International

Weather History for KGRR - March, 2014

Change the Weather History Date:

Saturday, March 29, 2014

  Actual Average Record
Temperature  
Mean Temperature 35 °F 41 °F  
Max Temperature 41 °F 50 °F 82 °F (1910)
Min Temperature 28 °F 31 °F 6 °F (1970)
Degree Days  
Heating Degree Days 30 24  
Month to date heating degree days 1137 863  
Since 1 July heating degree days 6418 5640  
Cooling Degree Days 0 0  
Month to date cooling degree days 0 0  
Year to date cooling degree days 0 0  
Moisture  
Dew Point 27 °F    
Average Humidity 70    
Maximum Humidity 85    
Minimum Humidity 55    
Precipitation  
Precipitation 0.00 in 0.09 in 0.83 in (1973)
Month to date precipitation 1.54 2.19  
Year to date precipitation 7.34 6.07  
Snow  
Snow 0.00 in 0.10 in 7.50 in (1954)
Month to date snowfall 6.4 8.0  
Since 1 July snowfall 114.2 72.8  
Snow Depth T in    
Sea Level Pressure  
Sea Level Pressure 30.21 in    
Wind  
Wind Speed 9 mph (NE)    
Max Wind Speed 18 mph    
Max Gust Speed 22 mph    
Visibility 10 miles    
Events      
T = Trace of Precipitation, MM = Missing Value Source: NWS Daily Summary

Daily Weather History Graph

Daily Weather History Graph

Search for Another Location

Airport or City:

Astronomy

Mar. 29, 2014 Rise Set
Actual Time 7:29 AM EDT 8:04 PM EDT
Civil Twilight 7:01 AM EDT 8:33 PM EDT
Nautical Twilight 6:27 AM EDT 9:07 PM EDT
Astronomical Twilight 5:52 AM EDT 9:42 PM EDT
Moon 6:39 AM EDT (3/29) 7:08 PM EDT (3/29)
Length of Visible Light 13h 32m
Length of Day
12h 35m
Waning Crescent, 2% of the Moon is Illuminated
Mar 29
Waning Crescent
Mar 30
New
Apr 7
First Quarter
Apr 15
Full
Apr 22
Last Quarter

Hourly Weather History & Observations

Time (EDT) Temp. Windchill Dew Point Humidity Pressure Visibility Wind Dir Wind Speed Gust Speed Precip Events Conditions
12:53 AM 32.0 °F 27.5 °F 27.0 °F 82% 30.19 in 10.0 mi ENE 4.6 mph - N/A   Scattered Clouds
1:18 AM 30.9 °F - 27.0 °F 85% 30.17 in 10.0 mi Calm Calm - N/A   Mostly Cloudy
1:53 AM 32.0 °F - 27.0 °F 82% 30.22 in 10.0 mi Calm Calm - N/A   Overcast
2:53 AM 33.1 °F 25.5 °F 27.0 °F 78% 30.22 in 10.0 mi East 9.2 mph - N/A   Overcast
3:53 AM 33.1 °F 25.5 °F 27.0 °F 78% 30.22 in 10.0 mi NE 9.2 mph - N/A   Overcast
4:53 AM 32.0 °F 24.8 °F 26.1 °F 79% 30.22 in 9.0 mi NNE 8.1 mph - N/A   Overcast
5:53 AM 32.0 °F 23.6 °F 26.1 °F 79% 30.21 in 10.0 mi NE 10.4 mph - N/A   Overcast
6:53 AM 32.0 °F 23.6 °F 26.1 °F 79% 30.21 in 10.0 mi NNE 10.4 mph - N/A   Overcast
7:53 AM 33.1 °F 24.9 °F 27.0 °F 78% 30.22 in 10.0 mi NE 10.4 mph - N/A   Overcast
8:53 AM 33.1 °F 26.1 °F 27.0 °F 78% 30.23 in 10.0 mi ENE 8.1 mph - N/A   Overcast
9:53 AM 33.1 °F 23.9 °F 27.0 °F 78% 30.22 in 10.0 mi NE 12.7 mph - N/A   Overcast
10:32 AM 33.1 °F 24.9 °F 27.0 °F 78% 30.20 in 10.0 mi NE 10.4 mph - N/A   Overcast
10:53 AM 34.0 °F 26.0 °F 27.0 °F 75% 30.23 in 10.0 mi NE 10.4 mph - N/A   Overcast
11:53 AM 34.0 °F 25.0 °F 27.0 °F 75% 30.24 in 10.0 mi NE 12.7 mph - N/A   Overcast
12:15 PM 35.1 °F 27.9 °F 27.0 °F 72% 30.21 in 10.0 mi NE 9.2 mph - N/A   Overcast
12:53 PM 36.0 °F 28.0 °F 28.0 °F 73% 30.23 in 10.0 mi NNE 11.5 mph - N/A   Overcast
1:53 PM 37.0 °F 29.3 °F 28.0 °F 70% 30.22 in 10.0 mi North 11.5 mph - N/A   Overcast
2:53 PM 39.0 °F 30.3 °F 28.9 °F 67% 30.19 in 10.0 mi ENE 16.1 mph - N/A   Overcast
3:38 PM 39.0 °F 30.6 °F 28.0 °F 65% 30.15 in 10.0 mi NNE 15.0 mph - N/A   Mostly Cloudy
3:53 PM 39.0 °F 31.0 °F 27.0 °F 62% 30.17 in 10.0 mi NNE 13.8 mph - N/A   Mostly Cloudy
4:47 PM 39.2 °F 31.2 °F 28.4 °F 65% 30.14 in 10.0 mi NNE 13.8 mph - N/A   Mostly Cloudy
4:53 PM 39.0 °F 31.8 °F 27.0 °F 62% 30.17 in 10.0 mi North 11.5 mph - N/A   Mostly Cloudy
5:53 PM 41.0 °F 33.5 °F 27.0 °F 57% 30.16 in 10.0 mi NNE 13.8 mph - N/A   Mostly Cloudy
6:53 PM 41.0 °F 36.4 °F 26.1 °F 55% 30.18 in 10.0 mi NE 6.9 mph - N/A   Mostly Cloudy
7:53 PM 37.9 °F 33.5 °F 26.1 °F 62% 30.19 in 10.0 mi ENE 5.8 mph - N/A   Scattered Clouds
8:53 PM 37.0 °F 31.6 °F 25.0 °F 62% 30.21 in 10.0 mi ENE 6.9 mph - N/A   Partly Cloudy
9:53 PM 33.1 °F 27.7 °F 26.1 °F 75% 30.22 in 10.0 mi East 5.8 mph - N/A   Clear
10:53 PM 30.9 °F 24.3 °F 26.1 °F 82% 30.23 in 10.0 mi ENE 6.9 mph - N/A   Clear
11:53 PM 30.0 °F 25.2 °F 24.1 °F 79% 30.23 in 10.0 mi NE 4.6 mph - N/A   Clear